This is the latest recevied weather packets stored in our database for station/object 4S6DRJ-13. If no packets are shown the sender has not sent any weather packets the latest 10 day(s).
| Time | Temp. | Humidity | Pressure | Rain* | Wind** | Luminosity | Snow |
|---|---|---|---|---|---|---|---|
| 1788049097 | 27.78° C | 84% | 1009.5 hPa | 0 mm | 0 m/s | 0 W/m² | - |
| 1788049036 | 27.78° C | 84% | 1009.5 hPa | 0 mm | 0.45 m/s, 208° | 0 W/m² | - |
| 1788048975 | 27.78° C | 84% | 1009.5 hPa | 0 mm | 1.79 m/s, 239° | 0 W/m² | - |
| 1788048914 | 27.78° C | 84% | 1009.5 hPa | 0 mm | 0.45 m/s, 289° | 0 W/m² | - |
| 1788048853 | 27.78° C | 84% | 1009.4 hPa | 0 mm | 1.34 m/s, 238° | 0 W/m² | - |
| 1788048792 | 27.78° C | 84% | 1009.5 hPa | 0 mm | 0 m/s | 0 W/m² | - |
| 1788048731 | 27.78° C | 84% | 1009.3 hPa | 0 mm | 0.45 m/s, 201° | 0 W/m² | - |
| 1788048670 | 27.78° C | 84% | 1009.5 hPa | 0 mm | 0.45 m/s, 282° | 0 W/m² | - |
| 1788048609 | 27.78° C | 84% | 1009.6 hPa | 0 mm | 1.34 m/s, 209° | 0 W/m² | - |
| 1788048548 | 27.78° C | 84% | 1009.5 hPa | 0 mm | 0.89 m/s, 220° | 0 W/m² | - |
| 1788048487 | 27.78° C | 84% | 1009.4 hPa | 0 mm | 0.89 m/s, 236° | 0 W/m² | - |
| 1788048426 | 27.78° C | 84% | 1009.6 hPa | 0 mm | 1.34 m/s, 175° | 0 W/m² | - |
| 1788048365 | 27.78° C | 84% | 1009.6 hPa | 0 mm | 2.24 m/s, 238° | 0 W/m² | - |
| 1788048304 | 27.78° C | 84% | 1009.5 hPa | 0 mm | 2.24 m/s, 208° | 0 W/m² | - |
| 1788048243 | 27.78° C | 84% | 1009.5 hPa | 0 mm | 0.89 m/s, 290° | 0 W/m² | - |
| 1788048182 | 27.78° C | 84% | 1009.4 hPa | 0 mm | 0 m/s | 0 W/m² | - |
| 1788048065 | 27.78° C | 84% | 1009.3 hPa | 0 mm | 0.45 m/s, 255° | 0 W/m² | - |
| 1788047999 | 27.78° C | 84% | 1009.6 hPa | 0 mm | 2.24 m/s, 233° | 0 W/m² | - |
| 1788047938 | 27.78° C | 84% | 1009.5 hPa | 0 mm | 0.89 m/s, 234° | 0 W/m² | - |
| 1788047877 | 27.78° C | 84% | 1009.4 hPa | 0 mm | 0.89 m/s, 279° | 0 W/m² | - |
| 1788047816 | 27.78° C | 84% | 1009.5 hPa | 0 mm | 2.68 m/s, 237° | 0 W/m² | - |
| 1788047755 | 27.78° C | 84% | 1009.6 hPa | 0 mm | 0.45 m/s, 254° | 0 W/m² | - |
| 1788047694 | 27.78° C | 84% | 1009.3 hPa | 0 mm | 0.45 m/s, 229° | 0 W/m² | - |
| 1788047633 | 27.78° C | 84% | 1009.3 hPa | 0 mm | 0.45 m/s, 216° | 0 W/m² | - |
| 1788047572 | 27.78° C | 84% | 1009.5 hPa | 0 mm | 0.45 m/s, 231° | 0 W/m² | - |
* Rain latest hour (hover to see other rain measurements)
** Current wind speed in m/s (hover to see current wind gust speed)